Weather History for Akureyri, Iceland

Change the Weather History Date:

Saturday, February 16, 2013

  Actual Average Record
Temperature  
Mean Temperature 30 °F -  
Max Temperature 31 °F 36 °F - ()
Min Temperature 28 °F 24 °F - ()
Degree Days  
Heating Degree Days 36    
Moisture  
Dew Point 25 °F    
Average Humidity 79    
Maximum Humidity 87    
Minimum Humidity 62    
Precipitation  
Precipitation 0.00 in 0.06 in - ()
Sea Level Pressure  
Sea Level Pressure 29.97 in    
Wind  
Wind Speed 5 mph ()    
Max Wind Speed 7 mph    
Max Gust Speed -    
Visibility 6.7 miles    
Events Snow    
T = Trace of Precipitation, MM = Missing Value Source: Averaged Metar Reports

Daily Weather History Graph

Daily Weather History Graph

Search for Another Location

Airport:

Trip Planner

Search our weather history database for the weather conditions in past years. The results will help you decide how hot, cold, wet, or windy it might be!

Date:

Astronomy

Feb. 16, 2013 Rise Set
Actual Time 9:11 AM GMT 5:42 PM GMT
Civil Twilight 8:17 AM GMT 6:36 PM GMT
Nautical Twilight 7:17 AM GMT 7:36 PM GMT
Astronomical Twilight 6:19 AM GMT 8:34 PM GMT
Moon 9:24 AM GMT (2/16) 2:17 AM GMT (2/16)
Length of Visible Light 10h 19m
Length of Day
8h 31m
Waxing Crescent, 37% of the Moon is Illuminated
Feb 16
Waxing Crescent
Feb 17
First Quarter
Feb 25
Full
Mar 4
Last Quarter
Mar 11
New

Hourly Weather History & Observations

Time (GMT) Temp. Windchill Dew Point Humidity Pressure Visibility Wind Dir Wind Speed Gust Speed Precip Events Conditions
12:00 AM 33 °F - 31 °F 87% 29.94 in 19 mi NW 5.8 mph - -   Overcast
12:00 AM 33.8 °F 27.7 °F 28.4 °F 81% 29.95 in 6.2 mi WNW 6.9 mph - N/A   Overcast
1:00 AM 32.0 °F 25.6 °F 28.4 °F 87% 29.95 in 6.2 mi NW 6.9 mph - N/A   Overcast
2:00 AM 32.0 °F 25.6 °F 28.4 °F 87% 29.92 in 6.2 mi NW 6.9 mph - N/A   Overcast
3:00 AM 32.0 °F 26.4 °F 28.4 °F 87% 29.92 in 6.2 mi NW 5.8 mph - N/A   Mostly Cloudy
4:00 AM 32.0 °F 26.4 °F 26.6 °F 80% 29.92 in 6.2 mi NW 5.8 mph - N/A   Mostly Cloudy
5:00 AM 32.0 °F - 26.6 °F 80% 29.92 in 6.2 mi WNW 2.3 mph - N/A   Overcast
6:00 AM 32.0 °F 27.5 °F 28.4 °F 87% 29.92 in 6.2 mi WNW 4.6 mph - N/A   Mostly Cloudy
7:00 AM 32.0 °F 27.5 °F 26.6 °F 80% 29.95 in 6.2 mi NNW 4.6 mph - N/A Snow Light Snow Grains
8:00 AM 32.0 °F 26.4 °F 24.8 °F 75% 29.95 in 6.2 mi NW 5.8 mph - N/A   Mostly Cloudy
9:00 AM 30.2 °F 25.4 °F 26.6 °F 86% 29.95 in 6.2 mi WNW 4.6 mph - N/A   Mostly Cloudy
10:00 AM 30.2 °F 23.4 °F 24.8 °F 80% 29.98 in 6.2 mi ENE 6.9 mph - N/A   Mostly Cloudy
11:00 AM 30.2 °F 23.4 °F 24.8 °F 80% 29.98 in 6.2 mi East 6.9 mph - N/A   Overcast
12:00 PM 31 °F - 24 °F 66% 29.99 in 31 mi ENE 2.3 mph - -   Overcast
12:00 PM 32.0 °F 26.4 °F 24.8 °F 75% 29.98 in 6.2 mi East 5.8 mph - N/A   Mostly Cloudy
1:00 PM 30.2 °F - 23.0 °F 75% 29.98 in 6.2 mi East 2.3 mph - N/A   Mostly Cloudy
2:00 PM 32.0 °F 27.5 °F 23.0 °F 69% 29.98 in 6.2 mi South 4.6 mph - N/A   Mostly Cloudy
3:00 PM 30.2 °F 25.4 °F 24.8 °F 80% 29.98 in 6.2 mi SE 4.6 mph - N/A   Mostly Cloudy
4:00 PM 30.2 °F 24.3 °F 23.0 °F 75% 29.98 in 6.2 mi SSE 5.8 mph - N/A   Overcast
5:00 PM 30.2 °F - 23.0 °F 75% 29.98 in 6.2 mi Variable 2.3 mph - N/A   Overcast
6:00 PM 30 °F - 22 °F 62% 29.99 in 25 mi SE 2.3 mph - -   Overcast
6:00 PM 30.2 °F - 21.2 °F 69% 29.98 in 6.2 mi South 2.3 mph - N/A   Overcast
7:00 PM 28.4 °F - 24.8 °F 86% 30.01 in 5.0 mi South 2.3 mph - N/A Snow Light Snow
8:00 PM 28.4 °F 24.6 °F 24.8 °F 86% 30.01 in 6.2 mi South 3.5 mph - N/A Snow Light Snow
9:00 PM 28.4 °F 23.3 °F 23.0 °F 80% 30.01 in 6.2 mi South 4.6 mph - N/A   Overcast
10:00 PM 28.4 °F 21.2 °F 21.2 °F 74% 30.01 in 6.2 mi SSE 6.9 mph - N/A   Overcast
11:00 PM 28.4 °F 21.2 °F 21.2 °F 74% 30.01 in 6.2 mi South 6.9 mph - N/A   Overcast